Terminal Aerodrome Forecast
Issued by NWS Twin Cities, MN

Home | Current Version | Previous Version | Graphics & Text | Print | Product List | Glossary On
Versions: 1 2 3 4 5 6 7 8 9 10 11 12 13 14 15 16 17 18 19 20 21 22 23 24 25 26 27
632
FTUS43 KMPX 271500 AAA
TAFMSP
TAF AMD
KMSP 271500Z 2715/2818 21009KT P6SM FEW080
     FM271800 18009KT P6SM SCT070 BKN120
     FM280000 14008KT P6SM SCT060 OVC090
     FM280900 12007KT 5SM -DZ BR BKN008 OVC020
     FM281400 06004KT 3SM -DZ BR OVC008=

USA.gov is the U.S. government's official web portal to all federal, state and local government web resources and services.